Orbital Elements at Epoch 2459200.5 (2020-Dec-17.0) TDB
Reference: JPL 17 (heliocentric ecliptic J2000)
Element | Value | Uncertainty (1-sigma) | Units |
e | .176368430918122 | 3.683e-08 | |
a | 2.434969844516303 | 1.6618e-08 | au |
q | 2.005518033706019 | 9.5806e-08 | au |
i | 1.746660310417854 | 4.5712e-06 | deg |
node | 145.6844971825034 | 0.00015484 | deg |
peri | 138.59191301849 | 0.00015562 | deg |
M | 302.5291203542932 | 1.9383e-05 | deg |
tp | 2459422.056324220167 (2021-Jul-26.55632422) | 7.6128e-05 | TDB |
period | 1387.838105331984 3.80 | 1.4207e-05 3.89e-08 | d yr |
n | .2593962499061694 | 2.6554e-09 | deg/d |
Q | 2.864421655326586 | 1.9548e-08 | au |
|
| | Orbit Determination Parameters
Additional Information
|